Weather History for Broken Bow, NE

Change the Weather History Date:

Saturday, January 19, 2013

  Actual Average Record
Temperature  
Mean Temperature 39 °F 26 °F  
Max Temperature 54 °F 38 °F 65 °F (2014)
Min Temperature 24 °F 14 °F -25 °F (1943)
Degree Days  
Heating Degree Days 26 39  
Month to date heating degree days 741 748  
Cooling Degree Days 0 0  
Month to date cooling degree days 0 0  
Year to date cooling degree days 0 0  
Moisture  
Dew Point 21 °F    
Average Humidity 59    
Maximum Humidity 92    
Minimum Humidity 26    
Precipitation  
Precipitation 0.00 in 0.02 in 0.84 in (1988)
Sea Level Pressure  
Sea Level Pressure 30.12 in    
Wind  
Wind Speed 14 mph (NNW)    
Max Wind Speed 30 mph    
Max Gust Speed 39 mph    
Visibility 10 miles    
Events      
T = Trace of Precipitation, MM = Missing Value Source: NWS Daily Summary

Daily Weather History Graph

Daily Weather History Graph

Search for Another Location

Airport:

Trip Planner

Search our weather history database for the weather conditions in past years. The results will help you decide how hot, cold, wet, or windy it might be!

Date:

Astronomy

Jan. 19, 2013 Rise Set
Actual Time 8:00 AM CST 5:38 PM CST
Civil Twilight 7:30 AM CST 6:09 PM CST
Nautical Twilight 6:56 AM CST 6:43 PM CST
Astronomical Twilight 6:23 AM CST 7:16 PM CST
Moon 12:06 PM CST (1/19) 1:35 AM CST (1/19)
Length of Visible Light 10h 39m
Length of Day
9h 38m
First Quarter, 57% of the Moon is Illuminated
Jan 19
First Quarter
Jan 26
Full
Feb 3
Last Quarter
Feb 10
New
Feb 17
First Quarter

Hourly Weather History & Observations

Time (CST) Temp. Windchill Dew Point Humidity Pressure Visibility Wind Dir Wind Speed Gust Speed Precip Events Conditions
12:53 AM 37.9 °F 34.4 °F 19.0 °F 47% 29.91 in 10.0 mi NW 4.6 mph - N/A   Clear
1:53 AM 39.0 °F 33.4 °F 19.0 °F 45% 29.91 in 10.0 mi West 8.1 mph - N/A   Clear
2:53 AM 42.1 °F 35.7 °F 19.0 °F 40% 29.92 in 10.0 mi WNW 11.5 mph - N/A   Clear
3:53 AM 42.1 °F 35.7 °F 19.9 °F 41% 29.92 in 10.0 mi WNW 11.5 mph - N/A   Clear
4:53 AM 37.9 °F 35.5 °F 19.9 °F 48% 29.94 in 10.0 mi Variable 3.5 mph - N/A   Clear
5:53 AM 41.0 °F 32.5 °F 19.9 °F 43% 29.98 in 10.0 mi WNW 17.3 mph - N/A   Clear
6:53 AM 37.9 °F 28.9 °F 19.9 °F 48% 30.02 in 10.0 mi WNW 16.1 mph - N/A   Clear
7:53 AM 39.0 °F 29.9 °F 19.9 °F 46% 30.05 in 10.0 mi WNW 17.3 mph - N/A   Clear
8:53 AM 41.0 °F 32.8 °F 19.9 °F 43% 30.08 in 10.0 mi WNW 16.1 mph - N/A   Clear
9:53 AM 44.1 °F 36.8 °F 21.0 °F 40% 30.11 in 10.0 mi NW 16.1 mph - N/A   Clear
10:53 AM 48.9 °F - 19.9 °F 32% 30.13 in 10.0 mi NW 23.0 mph - N/A   Clear
11:53 AM 52.0 °F - 21.0 °F 30% 30.12 in 10.0 mi NW 25.3 mph 32.2 mph N/A   Clear
12:53 PM 53.1 °F - 21.0 °F 29% 30.11 in 10.0 mi NNW 23.0 mph 29.9 mph N/A   Clear
1:53 PM 53.1 °F - 19.9 °F 27% 30.10 in 10.0 mi NW 24.2 mph 32.2 mph N/A   Clear
2:53 PM 54.0 °F - 19.0 °F 25% 30.10 in 10.0 mi NW 23.0 mph 34.5 mph N/A   Clear
3:53 PM 51.1 °F - 19.0 °F 28% 30.13 in 10.0 mi NNW 27.6 mph 35.7 mph N/A   Clear
4:53 PM 48.0 °F - 19.9 °F 33% 30.17 in 10.0 mi NNW 19.6 mph 34.5 mph N/A   Clear
5:53 PM 42.1 °F 36.1 °F 21.9 °F 45% 30.21 in 10.0 mi NNW 10.4 mph - N/A   Clear
6:53 PM 35.1 °F 27.9 °F 21.0 °F 57% 30.25 in 10.0 mi North 9.2 mph - N/A   Clear
7:53 PM 35.1 °F 27.4 °F 23.0 °F 61% 30.27 in 10.0 mi North 10.4 mph - N/A   Clear
8:53 PM 30.9 °F 25.2 °F 21.9 °F 69% 30.30 in 10.0 mi North 5.8 mph - N/A   Clear
9:53 PM 30.0 °F 21.7 °F 24.1 °F 79% 30.32 in 10.0 mi NNE 9.2 mph - N/A   Clear
10:34 PM 28.4 °F 19.7 °F 24.8 °F 86% 30.26 in 10.0 mi NE 9.2 mph - N/A   Mostly Cloudy
10:43 PM 26.6 °F 15.7 °F 23.0 °F 86% 30.26 in 10.0 mi NE 12.7 mph - N/A   Scattered Clouds
10:53 PM 27.0 °F 17.3 °F 24.1 °F 89% 30.31 in 10.0 mi NNE 10.4 mph - N/A   Scattered Clouds
11:53 PM 24.1 °F - 16.0 °F 71% 30.31 in 10.0 mi Calm Calm - N/A   Clear